{"data":{"norad_id":58968,"epoch":"2026-09-19T20:05:58.042176Z","epoch_age_seconds":212882,"freshness":"STALE","line1":"1 58968U 24031D   26262.83747734 -.00000031  00000+0  10222-4 0  9992","line2":"2 58968  53.1592  84.4953 0000776  96.8201 263.2890 15.34386188146684","mean_motion":15.34386188,"eccentricity":7.76e-5,"inclination_deg":53.1592,"raan_deg":84.4953,"arg_perigee_deg":96.8201,"mean_anomaly_deg":263.289,"bstar":1.0222e-5,"rev_number":14668,"period_min":93.848602865552,"perigee_km":462.21344030149,"apogee_km":463.27514507811,"semimajor_km":6840.8812926898,"source":"CELESTRAK","updated_at":"2026-09-21T09:00:34.018939Z"}}